Kermit
Posts: 169
Joined: Mon Feb 04, 2019 10:47 am

Re: Questions and Data tracking

Tue Jun 01, 2021 1:10 pm

Date - Odometer - kWh - Full charge range
02/14/19 12464 16.33000 81
03/01/19 12700 16.26670 98
04/23/19 13316 16.20000 108
05/21/19 13692 16.03333 107
06/17/19 14008 16.03333 96
07/12/19 14291 16.29999 93
08/13/19 14827 16.56666 92
09/12/19 15279 16.56666 99
10/09/19 15771 16.73333 108
11/15/19 16293 16.36666 88* (After full preconditioning cycle)
12/09/19 16485 16.20000 97
01/08/20 16905 16.03000 92
02/09/20 17314 15.80000 86
03/04/20 17647 15.80000 96
08/09/20 18098 15.53000 92 (After several months of only partial charges)
10/12/20 18459 15.33000 91
10/31/20 18576 15.13000 86 (Tire pressure had dropped enough that all the tires needed topped off)
01/11/21 18840 14.94000 82
02/04/21 19031 14.47000 78
03/02/21 19208 14.50000 79
04/01/21 19545 14.60000 97
05/03/21 19937 14.47000 97
06/01/21 20322 14.67000 98
2016 Spark EV
2017 Volt

MrDRMorgan
Posts: 1166
Joined: Wed Oct 30, 2013 7:27 am
Location: Manteca in Central California

Re: Questions and Data tracking

Fri Jun 04, 2021 1:31 pm

Kermit wrote:
Tue Jun 01, 2021 1:10 pm
Date - Odometer - kWh - Full charge range
02/14/19 12464 16.33000 81
03/01/19 12700 16.26670 98
04/23/19 13316 16.20000 108
05/21/19 13692 16.03333 107
06/17/19 14008 16.03333 96
07/12/19 14291 16.29999 93
08/13/19 14827 16.56666 92
09/12/19 15279 16.56666 99
10/09/19 15771 16.73333 108
11/15/19 16293 16.36666 88* (After full preconditioning cycle)
12/09/19 16485 16.20000 97
01/08/20 16905 16.03000 92
02/09/20 17314 15.80000 86
03/04/20 17647 15.80000 96
08/09/20 18098 15.53000 92 (After several months of only partial charges)
10/12/20 18459 15.33000 91
10/31/20 18576 15.13000 86 (Tire pressure had dropped enough that all the tires needed topped off)
01/11/21 18840 14.94000 82
02/04/21 19031 14.47000 78
03/02/21 19208 14.50000 79
04/01/21 19545 14.60000 97
05/03/21 19937 14.47000 97
06/01/21 20322 14.67000 98
Current data for my 2016 Spark EV 2LT with DCFC
2 Jun 2021: 34711 miles, 13.8 kWh fully charged as measured by TorquePro.

Return to “General / Main Owners Forum”